KD7QQY Weather Reports


time (UTC)temp
F
wind
direction
speed
knots
gust
knots
rain 1hr
in
rain 24hr
in
rain mn
in
humidity
%
barometer
mb
20260506222524 53 229 2.6 6.1 0.00 0.00 0.00 94 1019.7
20260506222024 53 258 2.6 6.1 0.00 0.00 0.00 94 1019.8
20260506221555 53 254 2.6 5.2 0.00 0.00 0.00 94 1019.8
20260506221023 53 218 2.6 7.0 0.00 0.00 0.00 94 1019.7
20260506220523 53 245 2.6 7.0 0.00 0.00 0.00 94 1019.7
20260506220058 53 231 1.7 5.2 0.00 0.00 0.00 95 1019.7
20260506215526 53 228 1.7 6.1 0.00 0.00 0.00 94 1019.7
20260506215024 52 228 2.6 6.1 0.00 0.00 0.00 94 1019.6
20260506214544 52 211 2.6 6.1 0.00 0.00 0.00 95 1019.6
20260506214024 52 231 2.6 6.1 0.00 0.00 0.00 95 1019.5
20260506213524 52 227 2.6 6.1 0.00 0.00 0.00 95 1019.6
20260506213046 52 225 2.6 6.1 0.00 0.00 0.00 94 1019.5
20260506212524 52 223 2.6 6.1 0.00 0.00 0.00 94 1019.6
20260506212025 52 210 3.5 6.1 0.00 0.00 0.00 94 1019.6
20260506211540 52 254 2.6 6.1 0.00 0.00 0.00 94 1019.6
20260506211024 52 234 1.7 6.1 0.00 0.00 0.00 94 1019.6
20260506210523 52 227 2.6 6.1 0.00 0.00 0.00 94 1019.6
20260506210053 52 227 2.6 5.2 0.00 0.00 0.00 94 1019.5
20260506205523 52 219 2.6 5.2 0.00 0.00 0.00 93 1019.6
20260506205023 52 242 2.6 4.3 0.00 0.00 0.00 93 1019.6
20260506204541 52 217 1.7 5.2 0.00 0.00 0.00 93 1019.6
20260506204023 52 223 1.7 6.1 0.00 0.00 0.00 93 1019.5
20260506203524 52 257 2.6 6.1 0.00 0.00 0.00 93 1019.5
20260506203040 52 229 2.6 6.1 0.00 0.00 0.00 92 1019.5
20260506202523 52 207 2.6 7.0 0.00 0.00 0.00 92 1019.5
20260506202023 52 197 2.6 7.0 0.00 0.00 0.00 92 1019.5
20260506201545 53 223 1.7 6.1 0.00 0.00 0.00 91 1019.4
20260506201024 53 221 2.6 6.1 0.00 0.00 0.00 91 1019.5
20260506200522 53 217 0.9 4.3 0.00 0.00 0.00 91 1019.5
20260506200039 53 0 0.9 6.1 0.00 0.00 0.00 91 1019.5
20260506195524 53 226 2.6 6.1 0.00 0.00 0.00 90 1019.4
20260506195024 53 232 1.7 5.2 0.00 0.00 0.00 91 1019.4
20260506194536 54 227 2.6 5.2 0.00 0.00 0.00 90 1019.3
20260506194027 54 221 1.7 4.3 0.00 0.00 0.00 90 1019.2
20260506193523 54 235 0.9 4.3 0.00 0.00 0.00 90 1019.3
20260506193041 54 234 0.9 3.5 0.00 0.00 0.00 90 1019.3
20260506192524 54 257 0.9 3.5 0.00 0.00 0.00 91 1019.2
20260506192028 54 273 0.9 4.3 0.00 0.00 0.00 91 1019.2
20260506191543 54 0 0.0 4.3 0.00 0.00 0.00 91 1019.3
20260506191024 54 281 0.9 4.3 0.00 0.00 0.00 91 1019.1
20260506190524 53 257 1.7 4.3 0.00 0.00 0.00 91 1019.1
20260506190040 54 226 0.0 4.3 0.00 0.00 0.00 92 1019.0
20260506185524 53 0 0.9 4.3 0.00 0.00 0.00 92 1019.1
20260506185024 53 248 1.7 4.3 0.00 0.00 0.00 92 1018.9
20260506184542 53 232 1.7 5.2 0.00 0.00 0.00 92 1018.9
20260506184025 53 0 2.6 5.2 0.00 0.00 0.00 92 1018.8
20260506183523 53 217 2.6 6.1 0.00 0.00 0.00 92 1018.9
20260506183036 53 191 1.7 6.1 0.00 0.00 0.00 92 1018.8
20260506182525 52 244 2.6 5.2 0.00 0.00 0.00 92 1018.9
20260506182023 52 242 3.5 6.1 0.00 0.00 0.00 92 1018.8
20260506181543 52 255 2.6 6.1 0.00 0.00 0.00 92 1018.8
20260506181024 52 224 1.7 5.2 0.00 0.00 0.00 92 1018.7
20260506180524 52 259 2.6 6.1 0.00 0.00 0.00 92 1018.6
20260506180047 53 252 1.7 6.1 0.00 0.00 0.00 92 1018.6
20260506175523 53 274 0.0 2.6 0.00 0.00 0.00 93 1018.7
20260506175023 53 225 0.9 2.6 0.00 0.00 0.00 92 1018.7
20260506174541 52 0 0.0 2.6 0.00 0.00 0.00 92 1018.7
20260506174023 52 271 0.0 2.6 0.00 0.00 0.00 92 1018.7
20260506173523 52 0 0.0 2.6 0.00 0.00 0.00 93 1018.7
20260506173046 52 0 0.0 2.6 0.00 0.00 0.00 92 1018.8
20260506172523 52 232 0.0 2.6 0.00 0.00 0.00 92 1018.8
20260506172025 52 232 0.9 3.5 0.00 0.00 0.00 92 1018.8
20260506171553 52 243 0.0 3.5 0.00 0.00 0.00 92 1018.8
20260506171024 52 232 0.9 3.5 0.00 0.00 0.00 92 1018.6
20260506170526 52 236 0.0 2.6 0.00 0.00 0.00 91 1018.6
20260506170043 52 240 0.0 2.6 0.00 0.00 0.00 91 1018.6
20260506165524 52 243 0.0 5.2 0.00 0.00 0.00 91 1018.5
20260506165024 52 0 0.0 5.2 0.00 0.00 0.00 92 1018.5
20260506164536 52 237 1.7 5.2 0.00 0.00 0.00 92 1018.5
20260506164023 52 0 1.7 5.2 0.00 0.00 0.00 91 1018.3
20260506163523 51 261 0.9 5.2 0.00 0.00 0.00 91 1018.3
20260506163042 51 0 0.9 3.5 0.00 0.00 0.00 92 1018.3
20260506162525 51 0 0.9 3.5 0.00 0.00 0.00 92 1018.2
20260506162023 51 228 0.9 3.5 0.00 0.00 0.00 92 1018.3
20260506161544 51 246 0.0 4.3 0.00 0.00 0.00 92 1018.3
20260506161023 51 207 1.7 4.3 0.00 0.00 0.00 91 1018.4
20260506160523 51 203 1.7 5.2 0.00 0.00 0.00 91 1018.3
20260506160052 51 0 1.7 5.2 0.00 0.00 0.00 91 1018.3
20260506155524 51 203 0.9 5.2 0.00 0.00 0.00 91 1018.2
20260506155024 51 221 0.9 5.2 0.00 0.00 0.00 91 1018.3
20260506154538 51 200 1.7 4.3 0.00 0.00 0.00 90 1018.2
20260506154027 51 233 0.9 3.5 0.00 0.00 0.00 90 1018.2
20260506153524 51 215 0.9 3.5 0.00 0.00 0.00 90 1018.1
20260506153043 51 244 0.9 3.5 0.00 0.00 0.00 90 1018.3
20260506152523 51 206 0.9 3.5 0.00 0.00 0.00 90 1018.2
20260506152024 51 219 1.7 4.3 0.00 0.00 0.00 90 1018.1
20260506151540 51 221 0.9 4.3 0.00 0.00 0.00 89 1018.1
20260506151023 51 224 1.7 5.2 0.00 0.00 0.00 89 1018.1
20260506150523 51 244 1.7 5.2 0.00 0.00 0.00 89 1017.9
20260506150042 51 214 1.7 5.2 0.00 0.00 0.00 89 1017.9
20260506145523 51 212 0.0 4.3 0.00 0.00 0.00 89 1018.0
20260506145023 51 212 1.7 5.2 0.00 0.00 0.00 89 1017.9
20260506144557 51 234 1.7 5.2 0.00 0.00 0.00 89 1017.8
20260506144028 51 210 2.6 5.2 0.00 0.00 0.00 89 1017.8
20260506143525 51 237 1.7 4.3 0.00 0.00 0.00 89 1017.7
20260506143039 51 242 1.7 4.3 0.00 0.00 0.00 89 1017.6
20260506142525 51 225 1.7 4.3 0.00 0.00 0.00 89 1017.4
20260506142024 51 207 1.7 4.3 0.00 0.00 0.00 89 1017.5
20260506141543 51 208 1.7 3.5 0.00 0.00 0.00 89 1017.3
20260506141024 51 216 0.9 3.5 0.00 0.00 0.00 89 1017.4
20260506140524 51 275 0.9 3.5 0.00 0.00 0.00 89 1017.4
20260506140044 51 238 0.0 2.6 0.00 0.00 0.00 89 1017.4
20260506135526 51 0 0.0 1.7 0.00 0.00 0.00 89 1017.3
20260506135023 51 0 0.0 1.7 0.00 0.00 0.00 89 1017.1
20260506134542 51 290 0.0 2.6 0.00 0.00 0.00 89 1017.2
20260506134025 51 0 0.0 2.6 0.00 0.00 0.00 89 1017.2
20260506133523 51 5 0.0 2.6 0.00 0.00 0.00 89 1017.1
20260506133040 51 0 0.0 2.6 0.00 0.00 0.00 89 1017.1
20260506132525 51 0 0.0 2.6 0.00 0.00 0.00 89 1017.1
20260506132023 51 279 0.0 1.7 0.00 0.00 0.00 89 1017.0
20260506131548 51 274 0.0 1.7 0.00 0.00 0.00 89 1017.1
20260506131027 51 0 0.0 1.7 0.00 0.00 0.00 89 1017.0
20260506130523 51 274 0.0 1.7 0.00 0.00 0.00 89 1017.0
20260506130038 51 0 0.0 2.6 0.00 0.00 0.00 89 1016.8
20260506125522 51 0 0.9 2.6 0.00 0.00 0.00 89 1016.7
20260506125022 51 237 0.0 1.7 0.00 0.00 0.00 89 1016.6
20260506124536 51 237 0.0 2.6 0.00 0.00 0.00 89 1016.7
20260506124026 51 0 0.0 2.6 0.00 0.00 0.00 90 1016.7
20260506123523 51 0 0.9 2.6 0.00 0.00 0.00 90 1016.7
20260506123045 51 0 0.9 2.6 0.00 0.00 0.00 90 1016.9
20260506122523 51 294 0.9 3.5 0.00 0.00 0.00 90 1016.9
20260506122026 51 208 0.9 3.5 0.00 0.00 0.00 90 1016.8
20260506121542 51 217 0.9 3.5 0.00 0.00 0.00 90 1016.8
20260506121024 51 0 0.0 2.6 0.00 0.00 0.00 90 1016.6
20260506120527 51 0 0.0 2.6 0.00 0.00 0.00 90 1016.8
20260506120039 51 252 0.9 3.5 0.00 0.00 0.00 90 1016.7
20260506115523 51 0 0.0 5.2 0.00 0.00 0.00 90 1016.8
20260506115022 51 252 0.9 5.2 0.00 0.00 0.00 90 1016.8
20260506114552 51 288 1.7 6.1 0.00 0.00 0.00 90 1016.8
20260506114024 51 326 0.9 6.1 0.00 0.00 0.00 90 1016.6
20260506113524 51 309 1.7 6.1 0.00 0.00 0.00 90 1016.4
20260506113035 51 0 0.0 3.5 0.00 0.00 0.00 90 1016.5
20260506112523 51 250 0.9 3.5 0.00 0.00 0.00 90 1016.4
20260506112023 51 251 0.0 3.5 0.00 0.00 0.00 90 1016.4
20260506111542 51 251 0.9 3.5 0.00 0.00 0.00 90 1016.5
20260506111023 51 257 0.9 3.5 0.00 0.00 0.00 91 1016.5
20260506110526 51 257 0.0 3.5 0.00 0.00 0.00 91 1016.5
20260506110044 51 257 0.0 3.5 0.00 0.00 0.00 91 1016.5
20260506105527 51 0 0.9 3.5 0.00 0.00 0.00 91 1016.6
20260506105025 51 273 0.9 5.2 0.00 0.00 0.00 91 1016.5
20260506104544 51 304 0.9 7.0 0.00 0.00 0.00 91 1016.4
20260506104023 51 321 2.6 7.0 0.00 0.00 0.00 91 1016.6
20260506103523 51 307 1.7 7.0 0.00 0.00 0.00 91 1016.5
20260506103039 51 297 3.5 7.8 0.00 0.00 0.00 91 1016.4
20260506102523 51 309 3.5 7.8 0.00 0.00 0.00 91 1016.4
20260506102024 51 327 2.6 7.0 0.00 0.00 0.00 92 1016.3
20260506101537 51 321 2.6 6.1 0.00 0.00 0.00 92 1016.2
20260506101024 51 306 0.9 2.6 0.00 0.00 0.00 92 1016.2
20260506100520 51 307 0.0 1.7 0.00 0.00 0.00 92 1016.1
20260506100037 51 0 0.0 2.6 0.00 0.00 0.00 92 1016.0
20260506095524 51 0 0.0 2.6 0.00 0.00 0.00 92 1016.1
20260506095024 51 302 0.0 3.5 0.00 0.00 0.00 92 1016.1
20260506094535 51 0 0.9 3.5 0.00 0.00 0.00 92 1016.1
20260506094023 51 274 0.9 4.3 0.00 0.00 0.00 92 1016.1
20260506093525 51 0 0.0 4.3 0.00 0.00 0.00 92 1016.1
20260506093040 51 238 0.9 4.3 0.00 0.00 0.00 92 1016.1
20260506092526 51 257 1.7 3.5 0.00 0.00 0.00 92 1016.0
20260506092023 51 260 1.7 3.5 0.00 0.00 0.00 92 1016.1
20260506091540 51 286 0.9 5.2 0.00 0.00 0.00 92 1016.1
20260506091024 51 301 1.7 7.0 0.00 0.00 0.00 92 1016.0
20260506090519 51 298 2.6 7.0 0.00 0.00 0.00 92 1015.9
20260506090039 52 290 2.6 7.0 0.00 0.00 0.00 92 1016.0
20260506085523 52 306 0.9 5.2 0.00 0.00 0.00 92 1016.0
20260506085024 52 298 0.9 5.2 0.00 0.00 0.00 92 1015.9
20260506084542 52 228 0.9 3.5 0.00 0.00 0.00 92 1015.8
20260506084024 52 228 0.9 3.5 0.00 0.00 0.00 92 1015.8
20260506083524 52 227 1.7 3.5 0.00 0.00 0.00 91 1015.9
20260506083043 52 0 0.0 3.5 0.00 0.00 0.00 92 1015.7
20260506082523 52 226 0.0 3.5 0.00 0.00 0.00 92 1015.8
20260506082023 52 217 0.0 3.5 0.00 0.00 0.00 91 1015.8
20260506081548 52 234 0.9 3.5 0.00 0.00 0.00 91 1015.8
20260506081023 52 220 1.7 3.5 0.00 0.00 0.00 91 1015.8
20260506080523 52 306 0.9 3.5 0.00 0.00 0.00 91 1015.7
20260506073524 52 0 0.9 3.5 0.00 0.00 0.00 91 1015.5
20260506073047 52 0 0.9 3.5 0.00 0.00 0.00 91 1015.5
20260506072525 52 257 1.7 3.5 0.00 0.00 0.00 91 1015.4
20260506072023 52 265 1.7 2.6 0.00 0.00 0.00 90 1015.4
20260506071536 52 302 0.0 3.5 0.00 0.00 0.00 90 1015.4
20260506071024 52 0 0.9 3.5 0.00 0.00 0.00 90 1015.3
20260506070523 52 317 1.7 3.5 0.00 0.00 0.00 90 1015.3
20260506062023 52 0 0.0 0.0 0.00 0.00 0.00 90 1015.2
20260506061539 52 0 0.0 0.0 0.00 0.00 0.00 90 1015.2
20260506061023 52 0 0.0 0.9 0.00 0.00 0.00 90 1015.2
20260506060523 52 0 0.0 1.7 0.00 0.00 0.00 90 1015.2
20260506051024 52 0 0.9 4.3 0.00 0.00 0.00 90 1015.2
20260506050523 52 0 0.0 4.3 0.00 0.00 0.00 90 1015.2
20260506045024 52 269 0.9 5.2 0.00 0.00 0.00 90 1015.2
20260506044544 52 0 1.7 5.2 0.00 0.00 0.00 90 1015.2
20260506044022 52 303 1.7 6.1 0.00 0.00 0.00 89 1015.1
20260506043523 52 303 2.6 6.1 0.00 0.00 0.00 89 1015.1
20260506043044 52 311 1.7 4.3 0.00 0.00 0.00 89 1015.0
20260506042528 52 0 0.0 2.6 0.00 0.00 0.00 90 1014.9
20260506042025 52 232 0.9 3.5 0.00 0.00 0.00 89 1014.7
20260506041542 53 242 1.7 3.5 0.00 0.00 0.00 89 1014.7
20260506041025 53 269 0.0 2.6 0.00 0.00 0.00 89 1014.7
20260506040525 53 269 0.0 3.5 0.00 0.00 0.00 89 1014.5
20260506040048 53 222 0.0 3.5 0.00 0.00 0.00 89 1014.4
20260506035528 53 229 0.9 3.5 0.00 0.00 0.00 89 1014.3
20260506035025 53 219 1.7 4.3 0.00 0.00 0.00 89 1014.2
20260506034540 53 210 1.7 4.3 0.00 0.00 0.00 89 1014.1
20260506034025 53 198 0.9 3.5 0.00 0.00 0.00 89 1014.0
20260506033525 53 211 0.9 2.6 0.00 0.00 0.00 89 1014.0
20260506033039 53 211 0.0 2.6 0.00 0.00 0.00 88 1014.0
20260506032525 53 0 0.0 4.3 0.00 0.00 0.00 89 1014.0
20260506032028 53 211 0.9 4.3 0.00 0.00 0.00 88 1013.9
20260506031538 53 218 0.9 2.6 0.00 0.00 0.00 89 1014.0
20260506031025 53 203 0.0 3.5 0.00 0.00 0.00 88 1013.9
20260506030527 53 211 0.0 3.5 0.00 0.00 0.00 88 1014.0
20260506030057 53 249 0.0 3.5 0.00 0.00 0.00 88 1014.0
20260506025524 53 249 0.9 3.5 0.00 0.00 0.00 88 1014.0
20260506025027 53 243 0.0 5.2 0.00 0.00 0.00 88 1013.9
20260506024555 53 227 0.9 5.2 0.00 0.00 0.00 88 1013.9
20260506024025 53 231 0.9 5.2 0.00 0.00 0.00 88 1014.0
20260506023525 53 205 0.0 5.2 0.00 0.00 0.00 88 1014.0
20260506023041 53 176 1.7 5.2 0.00 0.00 0.00 87 1013.9
20260506022524 54 0 0.0 1.7 0.00 0.00 0.00 87 1013.9
20260506022024 54 0 0.0 4.3 0.00 0.00 0.00 87 1013.9
20260506021539 54 202 0.9 4.3 0.00 0.00 0.00 87 1013.9
20260506021024 54 211 1.7 4.3 0.00 0.00 0.00 87 1014.0
20260506020529 54 257 0.0 2.6 0.00 0.00 0.00 87 1014.0
20260506020036 54 279 0.9 3.5 0.00 0.00 0.00 87 1014.0
20260506015524 54 233 0.9 3.5 0.00 0.00 0.00 87 1014.0
20260506015024 54 219 1.7 3.5 0.00 0.00 0.00 87 1014.0
20260506014555 54 0 0.0 3.5 0.00 0.00 0.00 87 1013.9
20260506014024 54 0 0.9 3.5 0.00 0.00 0.00 87 1013.9
20260506013523 54 221 0.9 3.5 0.00 0.00 0.00 87 1013.9
20260506013044 54 0 0.9 4.3 0.00 0.00 0.00 87 1013.9
20260506012523 55 250 1.7 4.3 0.00 0.00 0.00 86 1013.9
20260506012023 55 231 0.0 4.3 0.00 0.00 0.00 86 1013.9
20260506011542 55 0 0.0 4.3 0.00 0.00 0.00 86 1013.9
20260506011023 55 234 0.9 4.3 0.00 0.00 0.00 86 1014.0
20260506010523 55 0 0.9 3.5 0.00 0.00 0.00 86 1014.0
20260506010050 55 0 0.0 3.5 0.00 0.00 0.00 86 1014.0
20260506005525 55 240 0.0 6.1 0.00 0.00 0.00 86 1014.0
20260506005023 55 0 0.9 6.1 0.00 0.00 0.00 86 1014.0
20260506004548 56 221 0.9 3.5 0.00 0.00 0.00 86 1014.0
20260506004024 56 246 0.9 3.5 0.00 0.00 0.00 86 1014.0
20260506003523 56 0 0.9 1.7 0.00 0.00 0.00 85 1014.0
20260506003042 56 0 0.0 2.6 0.00 0.00 0.00 86 1014.0
20260506002522 56 292 0.0 2.6 0.00 0.00 0.00 86 1014.0
20260506002023 56 290 0.9 2.6 0.00 0.00 0.00 85 1014.1
20260506001536 56 298 0.9 2.6 0.00 0.00 0.00 85 1014.0
20260506001023 56 298 0.9 2.6 0.00 0.00 0.00 85 1014.1
20260506000524 56 0 0.9 2.6 0.00 0.00 0.00 85 1014.2
20260506000042 57 0 0.9 2.6 0.00 0.00 0.00 86 1014.2
20260505235522 57 310 0.0 2.6 0.00 0.00 0.00 85 1014.2
20260505235022 57 0 0.0 2.6 0.00 0.00 0.00 85 1014.1
20260505234542 57 290 0.9 2.6 0.00 0.00 0.00 86 1014.3
20260505234026 57 271 0.9 5.2 0.00 0.00 0.00 86 1014.3
20260505233524 57 243 0.0 5.2 0.00 0.00 0.00 86 1014.3
20260505233039 57 0 1.7 5.2 0.00 0.00 0.00 85 1014.3
20260505232523 57 250 0.9 4.3 0.00 0.00 0.00 84 1014.4
20260505232024 58 304 0.9 2.6 0.00 0.00 0.00 85 1014.3
20260505231541 57 267 0.9 2.6 0.00 0.00 0.00 86 1014.4
20260505231023 57 280 0.9 4.3 0.00 0.00 0.00 85 1014.4
20260505230522 57 268 0.9 4.3 0.00 0.00 0.00 85 1014.4
20260505230046 57 263 0.9 3.5 0.00 0.00 0.00 85 1014.4
20260505225523 58 0 0.9 3.5 0.00 0.00 0.00 85 1014.5
20260505225026 58 257 0.9 5.2 0.00 0.00 0.00 86 1014.5
20260505224537 58 277 1.7 5.2 0.00 0.00 0.00 85 1014.5
20260505224022 58 216 0.9 4.3 0.00 0.00 0.00 85 1014.4
20260505223522 58 273 0.9 4.3 0.00 0.00 0.00 85 1014.5
20260505223047 58 259 0.9 5.2 0.00 0.00 0.00 86 1014.5